Tracking 19219 objects as of 19-Jul-2018
HD Live streaming from Space Station
objects crossing your sky now

FENGYUN 1C DEB

Track FENGYUN 1C DEB now!
10-day predictions


NORAD ID: 31745
Int'l Code: 1999-025CEU
Perigee: 604.0 km
Apogee: 1,304.6 km
Inclination: 96.8 °
Period: 104.0 minutes
Semi major axis: 7325 km
RCS: 0.0077 m2 (small)
Launch date: May 10, 1999
Source: People's Republic of China (PRC)
Launch site: Taiyaun Space Center, China (TSC)

Note: This is SATELLITE DEBRIS
aabbcc
Your satellite tracking list
Your tracking list is empty




NASA's NSSDC Master Catalog

Two Line Element Set (TLE):
1 31745U 99025CEU 18185.60881668  .00000696  00000-0  26117-3 0  9992
2 31745  96.7605 125.1331 0478235  65.9497 299.0941 13.84734177562046
Source of the keplerian elements: AFSPC